Wind_Speed
18 26 31 33 33 30 24 24 29 31 26 22 22 22 24 29 35 39 41 40 41 40 37 36 35 34 33 34 33 33 33 32 33 34 34 34 34 35 34 32 32 32 28 28 30 29 27 25 24 25 23 22 22 22 23 22 22 25 24 23 25 27 27 28 28 28 24 18 14 12 12 12 13 13 10 10 16 19 17 15 13 12 11 10 9
13 17 23 30 32 32 29 25 25 29 31 31 31 29 28 29 33 37 41 41 41 43 40 37 36 35 34 33 32 32 33 32 32 34 35 34 34 35 36 34 33 32 29 29 30 28 27 25 25 26 25 23 22 23 24 22 22 25 24 23 24 26 28 30 31 27 20 17 15 11 8 7 8 8 8 9 12 15 15 16 15 14 12 11 11
8 9 14 23 28 32 34 30 31 35 36 37 37 37 35 32 32 35 39 41 39 40 40 38 36 34 32 31 31 30 31 31 31 32 34 34 34 35 36 36 35 33 30 30 29 28 28 26 25 26 27 25 24 25 25 23 24 26 26 25 24 26 27 30 32 25 19 18 15 7 3 4 3 4 8 11 12 13 13 14 15 15 12 11 12
7 8 10 18 24 27 32 35 38 37 37 39 38 38 39 38 36 36 39 40 38 38 38 36 34 31 30 29 30 30 29 30 29 29 32 34 35 35 35 36 36 34 32 31 29 28 28 28 27 27 28 27 26 27 27 26 26 28 28 27 26 26 25 29 29 24 23 20 11 4 2 3 1 5 8 10 12 12 12 14 14 14 13 12 13
8 9 9 13 19 25 31 38 40 36 35 39 39 37 39 42 43 42 43 41 38 38 37 34 33 30 28 27 28 27 27 29 29 30 33 35 36 36 35 36 35 35 34 32 31 29 29 29 28 29 29 28 29 29 29 28 28 30 30 28 29 29 26 28 26 21 23 25 15 6 4 2 2 6 9 9 11 12 12 15 15 14 14 14 14
7 8 8 10 15 25 32 35 38 37 36 40 44 43 41 43 45 43 45 45 40 39 37 36 35 32 29 30 30 28 27 30 33 33 34 35 36 36 35 35 34 34 34 33 31 30 30 31 29 30 30 30 31 31 30 29 29 31 32 30 30 31 29 28 26 22 22 24 19 11 7 4 4 9 7 4 9 12 12 15 17 16 17 16 15
6 7 7 9 12 19 25 30 33 34 36 40 44 47 46 44 44 43 44 46 44 44 42 39 38 35 34 34 33 31 29 29 31 31 33 34 34 35 35 34 34 34 34 33 32 30 31 32 29 30 32 32 33 31 30 30 31 32 32 31 31 30 31 29 27 26 23 22 19 14 10 6 7 13 9 3 5 8 11 15 18 18 18 18 17
6 6 7 9 12 17 22 29 32 32 31 31 33 40 45 45 46 45 42 42 45 48 48 45 43 40 38 35 33 32 29 26 26 28 31 32 33 35 35 35 34 35 34 34 33 30 32 33 30 31 34 34 34 33 31 31 32 33 32 31 31 31 31 31 30 29 26 24 21 15 10 6 10 16 18 12 5 3 7 12 17 19 19 19 18
7 7 8 9 13 20 26 31 37 39 36 31 30 33 39 43 45 45 41 39 44 47 48 48 47 45 41 35 32 31 28 25 25 28 30 31 32 34 36 36 35 35 35 35 34 31 33 34 31 33 36 36 35 33 33 32 32 34 33 32 32 31 32 31 30 31 30 27 24 19 13 9 11 15 19 17 7 4 4 5 13 16 17 21 21
7 8 8 10 15 25 32 34 38 42 43 43 40 35 35 39 40 41 41 40 43 46 46 47 47 45 41 37 34 30 28 27 27 29 31 31 32 34 36 37 36 36 36 36 35 33 34 34 31 34 37 36 35 34 33 33 32 33 34 33 32 32 32 31 30 30 31 29 26 25 19 15 13 11 15 17 8 5 5 5 13 15 13 19 23
7 8 8 11 18 27 29 30 35 40 42 44 44 40 36 37 39 40 40 41 42 45 46 45 45 45 44 42 38 34 31 30 30 31 32 32 33 36 37 37 37 37 37 37 37 34 35 35 32 34 37 36 35 35 34 34 33 33 33 32 32 32 32 32 30 29 29 29 28 28 26 23 19 14 17 20 12 6 5 4 12 17 15 16 19
7 8 8 9 14 18 17 17 25 33 39 40 41 43 40 37 38 39 38 39 40 43 45 44 43 44 46 45 41 37 35 34 34 34 34 34 35 36 37 37 36 37 38 38 38 37 36 36 34 35 36 36 35 34 35 35 34 33 32 32 32 33 33 33 32 30 29 30 29 29 29 28 26 21 20 22 19 14 10 7 10 13 13 15 17
7 8 8 8 9 11 13 17 21 25 32 41 41 40 40 38 38 38 38 40 40 41 42 42 42 42 44 45 43 40 38 38 37 35 35 35 35 36 37 37 37 38 38 39 40 39 38 37 37 37 37 36 36 35 35 35 35 34 33 33 33 33 34 34 33 32 31 31 30 29 29 28 28 25 20 20 22 20 13 8 10 12 9 11 15
7 7 8 8 9 9 11 18 22 21 23 32 40 41 39 38 39 39 39 40 41 42 42 41 41 41 40 42 44 43 41 40 39 37 37 37 36 38 40 40 39 39 39 40 41 40 39 39 38 38 37 36 36 35 35 35 35 35 34 34 34 34 34 34 34 33 32 31 30 28 28 28 30 28 23 21 22 22 18 11 9 9 6 6 8
7 7 7 8 9 10 11 15 20 21 21 22 27 37 40 39 40 41 40 40 40 40 41 41 40 39 38 39 40 42 42 41 40 39 38 38 37 39 40 41 41 40 40 41 41 40 40 39 38 38 38 37 37 36 36 36 35 34 33 34 35 34 34 34 34 34 33 32 31 28 26 27 28 28 25 24 23 22 21 17 11 8 3 3 5
6 6 7 8 9 9 13 16 19 24 27 26 23 21 29 36 40 42 41 41 41 41 41 41 41 39 38 38 38 39 39 39 38 38 39 39 39 39 40 42 42 40 40 40 41 40 40 39 39 39 38 38 38 37 36 36 36 34 33 33 34 34 34 34 35 34 34 33 31 28 25 26 27 26 24 25 25 23 20 18 16 14 8 2 3
6 6 7 6 7 10 13 20 23 24 28 31 29 24 19 19 25 35 41 40 40 42 42 42 41 41 40 39 39 39 38 38 39 40 41 41 40 39 39 40 40 40 40 41 40 40 40 40 40 40 39 38 39 38 37 36 35 34 34 34 33 33 33 33 34 34 34 33 32 30 27 26 26 24 24 24 25 26 22 19 19 19 15 7 3
7 5 7 8 3 7 13 19 27 32 32 35 39 37 27 15 9 15 28 38 39 39 40 41 41 41 41 40 39 39 40 40 40 40 40 39 39 39 38 39 40 41 41 40 41 40 40 40 40 40 40 39 39 39 38 37 35 34 34 34 34 33 32 32 33 34 34 33 32 30 29 28 27 26 25 24 24 25 25 24 22 20 20 15 10
7 7 6 8 6 4 10 15 23 34 39 39 41 42 39 31 19 16 17 25 35 38 37 38 40 41 41 41 41 40 41 41 40 39 39 39 40 41 40 40 41 41 41 41 41 41 40 40 40 40 40 40 40 40 39 38 37 36 35 34 34 33 33 32 32 33 34 34 33 32 31 30 29 28 27 26 26 25 25 24 23 22 21 21 20
7 7 6 7 7 7 9 15 21 26 35 38 36 38 39 37 34 28 22 21 25 32 36 37 38 39 39 39 39 39 39 40 39 38 38 40 41 42 42 42 41 41 42 42 41 41 41 41 41 41 41 41 40 40 40 39 38 37 36 35 34 33 33 33 32 32 32 33 33 33 32 31 30 30 30 28 27 26 25 24 23 23 21 22 24
6 7 7 7 6 8 13 15 22 24 27 31 31 34 37 35 36 39 35 29 26 28 33 36 37 37 37 38 39 39 38 38 38 38 39 40 41 42 42 43 42 42 42 42 42 42 42 42 41 41 41 41 40 40 39 39 39 39 38 37 35 34 34 33 32 32 32 32 32 33 32 32 31 30 30 30 28 26 25 24 23 23 22 22 23
5 7 7 7 6 6 12 15 20 22 22 25 29 31 33 35 38 39 37 35 32 31 32 34 36 37 38 39 39 39 39 39 39 39 39 39 40 41 43 42 42 43 44 44 43 42 42 42 41 40 40 40 40 40 39 39 40 39 38 37 36 36 35 33 33 32 33 32 32 32 32 31 31 31 30 29 28 27 25 25 25 24 24 23 23
5 6 7 7 7 6 9 12 17 22 22 23 26 28 30 34 38 38 35 37 39 38 37 35 36 38 39 40 39 39 39 39 39 39 39 39 40 41 42 43 43 43 44 44 43 42 41 41 40 39 39 39 40 40 39 40 40 40 39 38 37 37 36 35 34 34 34 33 32 32 31 31 30 30 30 29 27 27 27 26 26 26 25 23 22
5 5 6 7 7 6 7 8 11 19 22 22 23 26 30 32 33 34 36 40 43 42 40 37 37 39 40 39 39 39 40 39 40 40 40 40 40 41 41 43 44 43 42 43 42 41 39 39 38 38 38 39 39 39 39 40 40 41 40 40 38 37 37 37 37 35 34 34 33 32 32 31 30 30 29 28 27 27 27 27 27 26 25 23 21
7 7 7 8 8 6 5 5 8 13 18 20 21 23 25 28 31 32 35 39 41 41 41 41 40 38 38 39 40 39 39 40 41 41 41 41 40 40 41 42 43 42 42 41 40 39 38 38 38 38 38 38 38 39 39 39 40 41 40 40 39 38 38 38 38 37 36 35 35 34 33 31 30 29 28 27 27 26 25 26 25 25 25 23 21
8 8 8 8 8 7 6 6 8 11 15 18 20 22 22 24 27 29 31 34 36 37 37 39 41 40 38 38 40 39 39 41 42 41 41 41 40 39 39 41 42 41 41 39 37 37 38 38 39 38 37 37 37 38 39 40 40 40 39 39 38 38 38 38 38 38 37 37 36 35 33 31 30 30 29 28 27 26 24 24 24 24 25 24 23
7 7 7 8 8 8 7 6 8 11 15 19 20 21 23 25 27 29 30 32 33 33 30 29 32 37 39 39 39 40 40 40 41 42 41 39 38 38 37 37 38 38 38 38 37 37 38 38 38 38 38 38 37 37 39 39 40 39 39 38 38 38 38 37 38 38 37 37 36 35 33 31 31 31 30 29 27 26 26 25 25 25 24 24 23
7 7 8 9 8 8 8 7 7 10 15 19 19 19 20 23 26 29 31 32 33 35 34 29 26 28 32 38 40 40 40 40 39 40 39 36 35 34 34 34 34 36 38 39 39 39 38 38 37 37 38 37 37 38 39 39 40 39 39 38 38 38 38 37 37 37 37 36 35 34 33 31 31 31 30 29 29 29 28 28 27 25 24 24 24
8 8 8 8 8 7 7 7 6 6 11 15 17 19 20 20 24 26 28 29 31 35 39 38 33 30 30 32 36 37 37 38 38 36 34 33 32 33 32 33 34 36 37 38 38 38 36 35 35 36 37 37 38 39 40 40 40 40 39 39 38 38 38 38 37 36 36 36 35 34 33 32 31 30 30 30 30 31 32 31 29 27 25 25 24
8 8 8 8 9 8 7 7 6 4 5 11 16 20 23 24 27 27 27 28 29 33 36 35 36 37 36 33 32 34 36 35 35 34 33 32 32 32 32 33 34 35 34 32 33 34 34 34 34 35 36 37 38 40 41 42 42 41 40 39 38 38 38 38 37 36 36 36 36 35 34 32 31 31 31 30 30 31 33 33 31 28 27 27 26
10 8 7 8 8 8 7 7 4 4 3 6 14 20 23 25 29 32 34 35 34 34 35 34 36 41 44 40 36 34 34 35 35 34 33 33 33 33 32 32 32 33 32 30 30 31 33 34 34 34 35 37 38 40 40 42 44 44 42 40 39 38 38 38 37 37 37 37 36 35 33 31 30 30 29 28 28 29 30 30 30 29 29 28 28
11 8 7 8 9 9 8 7 4 2 5 4 7 16 22 24 27 30 33 35 34 33 31 30 30 33 36 39 40 38 35 33 35 36 35 35 35 34 33 32 31 31 30 29 29 30 31 32 32 33 35 37 39 39 40 42 45 46 44 41 40 39 39 39 39 38 38 37 36 34 32 30 30 29 28 27 27 28 29 30 29 29 29 28 28
11 9 8 8 8 8 7 7 6 3 5 7 5 9 19 26 30 30 30 30 31 31 30 29 29 27 24 23 27 35 37 35 36 38 38 38 36 35 34 32 30 28 26 23 24 27 29 30 32 33 34 37 39 39 40 42 45 47 46 43 41 40 40 40 40 39 38 38 37 35 32 31 30 29 28 28 28 28 29 30 30 29 29 28 27
12 11 9 8 8 8 8 11 10 6 6 7 7 6 11 20 27 28 27 28 28 29 31 32 34 35 33 26 22 24 29 36 40 40 39 38 38 37 37 36 34 32 28 24 20 21 25 28 31 33 34 36 38 39 41 42 44 47 48 46 43 41 41 41 41 40 39 38 37 36 34 32 31 30 30 30 30 29 29 30 29 29 29 28 27
12 12 11 8 9 8 9 13 13 9 7 8 7 8 7 11 17 21 23 26 27 26 27 27 27 28 32 34 29 23 22 24 32 37 39 41 41 38 36 36 37 37 36 34 30 29 29 29 29 30 32 35 38 39 40 41 43 46 48 47 44 41 41 41 41 41 40 39 38 37 35 33 33 32 33 33 32 31 30 29 29 28 28 27 27
10 12 13 13 13 13 13 12 11 9 9 11 8 6 5 7 12 17 19 22 24 25 25 26 26 26 27 30 31 29 22 18 19 19 24 29 31 30 28 29 33 35 36 37 37 36 35 33 30 30 32 35 38 39 39 40 42 46 48 48 44 42 41 41 41 41 40 40 39 37 35 35 35 35 34 34 33 32 30 29 28 28 26 26 26
10 12 16 17 18 16 13 12 12 11 11 13 11 5 3 4 8 11 14 17 19 22 25 28 30 31 32 31 32 33 30 25 23 17 12 13 18 21 21 21 24 29 33 35 36 37 38 39 39 37 37 37 38 38 38 39 41 45 48 48 44 42 41 40 41 41 41 40 39 38 37 36 37 36 36 35 33 32 31 30 29 28 26 25 25
11 13 17 17 15 14 14 15 16 13 10 10 11 9 5 4 5 7 10 14 17 20 24 27 28 29 32 33 34 35 33 32 31 24 19 22 27 29 30 29 28 29 32 34 35 35 36 39 40 40 40 39 38 38 37 38 41 46 49 49 45 41 40 40 39 40 40 40 40 38 38 38 38 38 37 36 34 33 32 32 31 29 27 26 26
15 14 15 16 16 14 13 14 14 14 13 12 12 9 6 5 5 5 7 11 17 21 25 26 27 29 31 32 33 34 31 30 31 29 28 33 35 32 33 35 36 34 33 33 31 29 30 34 38 41 43 42 40 38 39 40 42 46 50 50 46 41 39 39 38 38 39 40 40 39 39 39 38 38 37 36 35 35 34 34 33 31 29 29 29
15 16 15 17 17 15 14 14 15 16 17 16 14 12 9 8 7 5 6 10 14 19 25 28 27 28 31 33 33 32 31 31 31 32 33 36 36 31 29 31 34 35 34 34 32 31 30 33 37 40 43 45 44 41 42 44 44 46 51 52 46 42 41 39 38 38 38 38 39 40 40 40 38 38 38 37 36 36 35 35 35 33 33 33 31
15 17 18 17 17 14 13 14 16 17 17 15 14 13 12 12 10 8 9 11 12 16 20 25 25 25 28 32 33 33 33 33 33 34 35 37 37 34 32 33 34 35 34 33 33 34 35 37 40 41 42 45 47 45 44 45 45 47 52 54 49 45 44 41 39 38 38 39 40 41 41 40 39 39 38 37 37 37 36 36 36 36 36 35 32
14 16 17 15 15 14 13 13 15 15 16 16 15 13 14 14 11 11 14 16 15 16 18 21 23 24 27 30 31 31 32 33 33 33 34 36 37 36 36 36 35 34 34 33 32 34 37 40 44 45 45 46 48 47 46 47 47 49 53 57 54 49 46 43 40 38 38 39 41 42 42 41 40 39 39 38 37 37 37 37 36 35 35 33 30
15 16 18 15 13 13 13 15 16 16 17 18 16 15 15 14 15 17 19 19 18 18 19 20 22 24 26 29 31 30 31 31 31 31 33 35 35 36 36 36 35 34 33 33 32 33 34 36 39 42 44 46 46 46 47 49 50 50 53 58 58 52 48 45 42 41 41 41 41 42 41 40 40 39 39 38 36 36 37 37 35 34 34 32 30
17 20 22 19 13 12 14 17 19 19 19 19 17 16 16 16 19 23 23 21 21 20 19 19 22 25 27 28 30 31 32 32 32 32 33 33 33 34 35 35 35 34 32 31 31 32 31 32 33 34 37 40 41 41 45 49 51 52 54 58 59 55 50 47 45 43 43 42 42 41 41 40 39 38 38 37 36 36 37 36 34 34 34 32 30
21 24 26 21 13 10 13 17 20 21 21 20 17 15 16 18 22 26 26 25 25 22 19 19 21 25 27 28 30 31 32 33 34 33 33 32 32 32 32 32 32 31 30 28 28 28 29 30 30 30 31 34 36 38 41 46 50 51 54 57 59 56 53 50 47 44 43 42 42 41 40 38 37 37 37 37 36 37 36 35 34 34 34 32 31
24 26 27 22 15 14 15 15 18 19 19 19 17 14 15 19 24 27 27 26 26 25 24 22 22 23 25 27 30 31 32 33 34 35 35 35 34 33 32 31 30 29 29 27 26 26 27 27 28 29 27 25 27 33 39 45 48 50 53 56 58 57 55 52 48 45 43 41 40 39 38 36 35 36 37 38 38 37 36 35 34 35 34 33 32
27 28 27 23 18 17 16 16 17 19 20 19 19 17 16 18 22 25 27 27 26 25 26 26 25 23 23 25 29 31 31 31 32 34 36 36 35 34 33 30 28 27 26 25 25 25 24 19 15 15 16 19 23 27 32 38 44 48 51 54 55 54 51 49 46 43 40 39 38 37 36 35 35 36 37 38 38 37 36 37 37 37 36 35 34
28 31 31 27 22 20 19 17 17 20 22 21 19 18 18 19 20 22 24 26 27 27 27 28 28 25 22 23 28 31 31 30 31 33 35 34 32 32 31 30 30 30 29 27 26 26 27 24 18 17 20 24 27 30 32 36 43 47 48 48 49 48 46 44 42 39 34 33 33 32 32 32 33 35 36 37 38 38 38 38 39 39 38 36 36
22 26 28 27 25 26 25 22 20 20 20 17 16 18 19 20 21 22 21 24 29 29 28 30 31 28 24 23 27 31 32 31 30 33 35 36 35 35 33 33 34 37 37 36 33 32 34 34 32 32 32 30 29 34 40 42 44 48 49 49 48 49 46 42 40 37 32 29 29 29 30 31 32 33 35 36 36 37 37 37 39 39 38 38 37
20 23 26 28 31 32 31 26 21 19 16 14 16 21 23 24 25 27 25 23 28 30 29 29 30 28 26 24 26 30 33 31 30 31 32 34 36 37 38 38 38 40 43 44 42 41 42 42 40 39 40 39 40 44 46 45 44 47 51 52 52 54 53 47 42 38 33 30 30 31 32 33 33 34 34 35 35 34 35 35 37 37 38 39 39
20 23 25 29 31 30 27 24 22 21 18 17 21 26 29 31 32 33 34 28 26 29 26 27 29 29 28 26 26 28 31 31 29 30 31 30 30 31 35 40 42 42 44 47 47 46 45 44 43 41 41 44 47 47 44 45 48 50 51 52 53 54 54 52 48 43 36 33 34 33 32 34 34 34 34 35 34 34 34 35 35 36 38 39 39
Wind_Direction
206 203 202 202 203 204 211 219 210 197 200 215 211 199 190 181 175 174 176 177 177 180 185 188 189 191 195 198 198 199 199 200 202 204 204 205 206 204 202 201 201 202 202 202 203 205 208 207 205 203 199 196 198 197 194 190 186 184 180 175 172 165 161 165 167 161 148 135 132 133 137 146 163 181 198 205 199 198 199 198 197 200 202 199 192
211 204 199 199 197 193 196 210 215 200 193 202 201 195 193 189 182 177 176 177 180 182 184 188 191 191 194 197 198 198 198 198 199 201 202 203 205 203 202 201 201 202 201 199 202 205 206 206 207 206 202 198 199 199 196 192 189 189 185 176 175 172 165 164 167 164 152 147 147 131 123 142 157 175 183 184 190 195 198 199 200 201 205 207 201
230 213 193 197 197 188 186 197 215 209 195 195 196 191 189 190 187 181 178 179 181 183 185 188 191 192 192 194 195 195 198 198 199 199 199 201 203 202 203 202 203 204 202 200 203 205 206 206 208 208 203 199 200 200 199 198 193 193 192 182 174 171 169 169 171 173 165 152 145 137 135 141 149 182 175 171 181 189 197 201 203 204 207 207 206
227 236 204 195 199 191 185 192 205 207 195 190 194 191 186 186 187 184 180 181 182 183 186 188 188 190 193 193 192 193 196 198 199 198 197 198 200 201 203 204 205 206 205 203 205 208 207 205 208 209 203 201 203 203 202 202 198 194 194 191 181 170 167 172 176 182 180 166 141 103 115 130 212 221 189 179 182 189 200 206 207 207 205 203 209
199 224 219 198 197 194 193 193 196 201 196 187 190 194 188 184 186 185 182 180 183 184 185 185 185 186 189 188 189 190 192 194 195 195 194 195 197 199 203 204 206 206 205 206 207 209 208 205 208 208 204 203 205 207 207 206 201 196 195 195 191 183 175 175 181 190 193 188 176 145 128 152 225 190 184 195 198 199 204 208 213 214 209 208 214
195 207 217 206 198 195 197 197 193 195 198 191 189 194 194 188 186 185 180 178 184 189 187 185 185 185 184 182 184 186 188 193 194 193 192 193 196 198 201 204 206 206 206 206 207 209 208 206 209 209 205 205 206 209 210 207 202 198 198 199 196 194 186 178 183 192 194 195 197 196 195 207 183 163 160 204 208 210 212 209 215 219 218 217 219
211 206 211 206 204 199 198 199 196 194 197 195 192 192 193 190 187 186 182 180 187 191 190 188 186 186 189 189 190 190 191 195 197 195 193 193 196 198 201 205 207 206 207 206 207 209 207 207 212 211 208 206 207 209 210 207 204 200 201 203 201 199 194 186 186 189 189 196 204 209 210 219 196 177 169 162 191 218 219 211 215 219 220 222 225
232 219 211 205 205 206 201 197 195 195 197 200 199 193 191 190 188 188 186 183 184 188 190 190 189 189 193 194 195 196 197 196 195 195 195 195 196 198 201 205 206 206 207 206 206 208 207 208 213 212 208 207 206 209 211 208 205 203 202 205 205 204 202 198 192 189 191 196 199 201 202 204 202 194 189 179 158 202 216 214 218 219 221 225 230
245 233 218 211 206 207 205 198 194 192 192 198 207 204 195 191 189 187 188 184 182 185 189 191 191 191 192 194 196 198 198 196 194 195 198 198 197 197 201 205 206 205 206 205 206 208 208 210 213 210 207 207 207 209 211 210 208 206 204 205 207 207 208 207 201 197 198 199 198 197 190 178 190 200 196 187 166 167 194 218 216 215 224 228 229
251 243 225 218 213 208 205 200 197 193 190 193 201 209 205 195 190 187 187 186 184 186 189 192 192 191 190 193 196 196 195 194 193 194 198 199 198 198 200 204 204 203 204 205 206 209 209 210 213 210 207 208 208 208 210 211 210 209 209 209 210 210 209 209 209 208 206 205 203 198 189 179 182 190 192 191 183 173 185 212 206 202 217 228 228
260 255 239 224 217 212 204 201 201 196 192 193 194 201 206 198 190 188 188 187 187 188 191 193 193 191 190 193 196 195 192 190 191 193 196 196 197 198 200 202 202 201 202 203 205 208 208 210 212 209 207 209 211 210 211 212 212 211 212 212 212 213 213 212 213 214 211 210 209 205 200 195 194 194 194 194 190 180 177 196 206 206 215 229 229
270 266 250 228 215 208 199 205 215 205 192 190 191 193 199 199 191 188 189 189 189 190 192 194 195 193 191 192 195 194 192 192 193 194 195 195 196 196 197 199 200 200 201 201 204 206 207 208 210 208 208 210 213 214 213 214 215 215 215 215 215 215 215 215 214 214 214 212 211 212 212 210 209 209 206 202 202 202 193 185 198 202 216 236 234
277 275 256 233 215 202 190 193 215 222 200 187 187 189 191 194 192 189 189 190 191 191 193 194 196 197 194 192 194 195 194 196 196 196 197 197 196 195 195 196 197 198 199 200 203 205 206 206 207 208 209 211 214 216 216 215 217 217 217 218 218 217 217 217 217 216 217 216 216 218 220 220 217 216 218 215 212 211 205 194 194 195 210 235 233
280 277 260 238 218 204 198 189 195 225 226 196 185 185 187 189 190 190 191 190 190 191 193 195 197 199 197 194 194 194 195 197 198 198 198 198 198 197 197 196 197 198 198 201 203 204 205 207 207 208 211 213 214 216 218 218 218 219 221 222 221 220 219 219 220 220 219 219 219 221 224 224 223 221 223 222 216 212 210 202 185 191 220 236 226
289 285 270 254 233 204 196 194 189 205 235 231 200 187 186 188 189 189 190 190 191 191 192 195 198 200 200 199 197 195 196 198 199 201 200 199 199 199 199 198 199 200 200 202 203 204 205 207 208 210 213 215 216 216 218 220 221 221 223 222 221 221 220 219 220 220 220 219 219 223 226 225 223 222 225 225 219 214 214 215 199 178 209 257 223
311 300 281 264 252 224 192 189 191 192 208 233 240 212 193 190 190 190 190 190 191 191 193 195 197 200 201 202 200 197 197 198 199 201 202 202 201 200 200 200 201 201 201 202 204 204 206 207 208 210 213 216 218 217 218 220 222 222 221 220 219 219 219 219 219 220 220 220 220 223 225 224 222 223 226 225 222 219 218 223 217 195 183 210 236
305 289 296 285 248 235 208 187 185 189 196 210 223 231 221 200 196 194 190 189 192 192 193 195 197 199 202 203 202 199 199 200 200 202 202 203 203 202 201 201 202 202 202 203 204 205 206 206 208 209 211 215 218 219 218 218 220 220 220 219 219 218 218 219 220 220 221 221 222 223 225 225 223 224 226 225 225 227 226 227 227 214 200 188 185
301 304 328 332 302 236 227 199 183 184 194 201 202 209 217 218 243 234 200 190 192 193 194 195 196 198 201 202 202 201 201 203 203 203 203 202 203 203 202 202 203 204 204 204 205 206 206 207 208 209 210 211 215 218 219 218 218 218 219 221 221 219 218 219 221 221 222 221 222 224 225 225 224 225 227 227 227 231 231 229 229 225 218 209 195
324 337 341 341 345 298 253 228 197 183 190 200 198 198 206 209 222 263 249 207 196 194 195 197 198 199 200 202 203 202 203 205 205 205 203 203 203 204 204 204 204 205 205 205 205 206 206 206 207 208 209 209 211 214 217 218 218 217 217 219 220 220 219 219 220 221 222 221 220 222 223 223 225 227 229 231 231 233 233 232 229 226 225 224 216
327 330 329 329 330 326 297 252 222 196 190 195 194 194 200 203 200 209 233 237 216 202 198 200 201 201 201 202 203 204 205 206 206 206 205 204 204 204 204 205 206 206 206 206 206 207 207 206 207 207 207 208 209 212 214 216 218 218 218 218 217 218 219 220 220 219 219 220 220 221 223 225 227 229 231 232 233 233 231 230 231 229 226 228 224
313 317 319 319 312 326 325 277 233 215 201 192 189 192 196 198 197 199 206 216 223 217 207 203 203 204 203 204 204 205 206 207 207 207 207 207 206 204 204 205 206 206 207 207 207 208 207 207 207 207 207 207 208 210 212 214 215 217 219 219 218 218 219 220 219 217 217 219 221 222 225 228 229 230 231 231 231 230 229 226 229 232 228 225 222
292 307 309 311 308 323 328 291 234 218 213 200 190 190 192 193 197 200 199 200 209 220 219 211 206 205 206 206 206 206 207 208 209 208 208 208 206 205 205 204 206 207 207 207 208 208 208 208 208 208 208 209 209 210 210 212 213 216 217 218 218 218 218 219 217 216 217 219 221 223 226 228 228 228 229 230 230 228 226 225 226 230 230 228 224
277 296 298 305 305 305 322 295 234 212 212 208 197 191 191 193 196 197 196 196 204 215 220 216 209 207 208 208 207 207 208 209 210 210 210 209 208 207 205 204 206 207 207 208 208 208 208 208 209 209 209 210 210 210 211 211 212 214 215 216 217 217 217 217 217 216 216 216 218 221 224 226 226 227 228 231 233 230 226 226 226 228 231 233 230
302 300 297 303 304 300 318 303 242 214 207 207 202 196 194 194 196 197 197 197 202 209 215 215 212 210 208 208 209 208 208 209 210 211 211 211 209 208 206 205 206 207 207 208 208 208 208 209 210 210 210 211 211 210 211 212 213 214 215 216 216 216 217 218 218 217 215 215 215 218 222 225 226 227 230 231 230 228 226 226 227 229 231 232 225
315 313 305 300 300 300 305 296 253 218 205 204 205 203 199 195 194 197 200 200 201 205 209 212 213 212 209 208 209 209 209 209 211 212 213 212 211 210 208 207 206 206 207 207 206 206 208 209 211 212 211 212 212 212 212 214 215 215 216 216 216 217 217 218 219 219 217 216 217 219 222 225 226 227 229 227 222 222 224 225 227 226 225 225 221
302 301 299 292 292 292 286 282 261 222 200 199 202 201 202 201 198 197 199 200 201 204 207 209 210 210 209 209 208 209 210 210 211 212 214 214 213 212 210 208 207 206 206 204 204 205 207 210 212 213 213 214 213 213 214 215 216 216 217 217 218 218 218 218 218 218 219 219 220 222 223 223 224 225 224 221 218 219 221 222 222 220 219 221 222
284 284 286 284 286 287 283 279 260 231 208 202 202 200 199 200 201 201 200 200 200 202 207 217 218 212 209 209 210 210 211 212 212 213 214 215 214 213 212 211 209 207 205 202 201 205 208 211 213 214 215 215 215 214 215 216 217 217 218 218 218 219 219 218 218 218 219 220 221 222 222 221 223 225 224 222 219 219 220 221 221 218 219 223 226
273 273 275 278 280 282 287 291 269 237 219 208 203 201 202 203 203 203 203 203 203 201 204 216 232 232 220 211 210 211 211 211 213 214 215 215 216 216 214 212 210 210 208 203 201 204 207 209 212 214 215 215 215 215 215 216 218 218 218 219 219 219 219 219 219 219 218 220 221 222 222 222 224 227 228 227 225 223 223 224 224 223 224 227 227
275 278 278 279 281 278 277 289 294 251 221 211 202 198 202 211 215 213 210 208 205 203 203 206 216 233 239 227 215 212 212 212 212 214 216 216 215 216 215 213 211 212 212 206 201 202 205 207 210 213 215 215 215 216 215 216 217 218 219 219 219 219 219 219 219 219 219 220 221 220 221 223 226 230 231 232 232 232 231 229 226 224 224 224 225
277 279 284 279 277 278 272 274 296 301 223 208 206 206 204 207 213 217 218 218 214 208 208 208 208 217 233 240 229 217 212 211 211 211 213 215 216 216 215 213 212 213 214 210 203 201 203 206 209 212 214 215 216 217 217 216 217 218 218 219 220 220 219 220 219 219 219 219 220 220 221 224 228 230 232 236 238 237 235 234 231 227 223 222 224
284 276 280 279 271 275 275 259 266 329 320 218 211 217 217 212 209 210 212 215 215 210 208 210 212 215 221 229 232 225 215 209 209 210 211 213 215 215 213 212 212 212 213 210 204 201 203 206 210 212 215 217 218 218 217 216 217 218 217 217 218 220 219 219 219 218 217 217 217 218 222 224 227 230 233 238 238 233 231 232 234 232 228 225 226
284 276 274 272 268 271 276 264 243 284 323 294 225 218 221 219 215 212 210 209 209 210 208 207 213 221 223 221 221 221 217 209 206 207 208 209 211 211 209 208 208 208 209 208 205 203 204 206 210 214 217 219 221 221 219 217 217 218 217 216 217 219 218 218 219 218 217 217 216 217 221 225 227 230 233 234 232 229 228 230 232 233 232 231 231
279 281 281 269 267 270 264 261 258 260 298 308 286 230 222 221 219 216 213 209 206 206 205 204 208 222 236 240 230 222 215 207 206 207 206 204 205 206 205 203 200 198 199 202 205 206 206 207 211 216 220 222 224 223 221 219 218 218 218 216 217 218 218 218 219 219 218 218 217 218 221 225 228 230 230 230 229 227 226 227 229 233 234 232 232
287 295 298 275 270 278 269 267 275 289 315 316 297 256 230 224 221 217 212 207 204 203 204 206 208 213 222 236 250 245 224 208 205 206 203 201 201 202 202 200 197 193 191 192 199 208 210 211 214 218 222 225 227 226 224 221 219 219 218 217 217 218 219 219 219 219 220 220 219 220 222 224 226 226 226 226 225 224 224 226 229 231 231 230 228
310 317 317 296 279 274 268 276 285 296 319 322 289 256 244 230 221 216 211 208 205 203 203 206 209 215 219 221 228 246 250 232 217 209 203 203 202 201 200 199 197 196 195 197 201 207 210 212 217 222 225 228 230 229 227 223 220 220 219 217 217 217 218 219 220 220 221 221 221 221 223 225 225 223 222 222 222 223 224 225 227 227 227 226 225
314 320 322 317 304 279 254 262 289 304 307 304 283 243 235 240 226 216 213 213 210 203 201 205 210 218 225 223 219 222 235 258 262 235 209 200 199 199 201 200 198 199 201 202 203 204 207 210 216 223 228 232 234 232 230 225 221 220 219 216 215 217 217 218 219 220 221 222 221 222 224 225 224 222 222 222 223 223 223 222 222 221 220 220 219
306 307 304 308 313 306 290 292 309 314 305 294 286 269 236 242 237 229 224 220 215 207 202 204 207 210 214 219 222 220 221 234 252 255 237 209 198 201 207 205 202 203 204 204 204 205 209 213 215 219 225 231 234 234 231 227 223 220 218 215 214 215 216 217 219 220 221 221 221 223 224 224 223 223 223 222 222 221 219 219 217 215 214 213 213
287 288 289 297 316 330 329 321 313 310 314 310 300 293 277 257 254 253 240 225 221 219 213 207 204 205 209 214 221 225 223 221 218 215 221 226 218 210 210 212 214 212 208 208 209 209 211 213 214 217 223 228 233 233 231 228 224 221 218 215 214 214 215 216 217 218 220 220 221 223 224 224 224 224 224 222 219 218 216 215 215 212 210 209 209
272 273 283 299 316 325 327 324 316 314 323 330 324 315 304 289 284 276 247 226 225 230 229 223 214 210 211 215 219 221 215 205 198 197 211 224 223 214 206 206 210 211 209 209 211 212 215 215 215 218 221 224 228 232 232 228 225 222 219 216 214 214 213 214 215 215 216 218 220 221 223 225 226 226 224 221 218 216 215 216 215 211 209 210 211
289 293 296 304 315 322 324 320 314 312 316 321 322 320 315 305 302 293 255 237 240 244 241 234 227 220 215 215 218 216 207 198 196 197 205 214 218 212 203 201 205 207 208 208 208 210 216 220 221 222 222 223 224 227 230 228 224 222 219 216 213 213 212 212 212 213 213 215 217 219 222 224 226 226 224 222 219 217 216 217 215 212 213 216 214
304 310 311 309 310 312 309 304 303 305 309 314 318 317 312 306 301 288 273 268 272 271 256 240 231 226 221 218 218 215 210 205 203 199 198 203 208 206 202 202 203 205 207 206 206 207 211 218 224 226 227 226 224 224 225 225 223 221 219 215 213 213 213 211 210 211 213 213 214 217 220 221 223 225 225 223 220 218 218 218 218 219 222 222 216
319 321 320 315 309 306 301 299 304 309 311 314 319 318 312 308 295 278 279 282 282 281 271 250 233 225 224 224 223 220 216 214 209 202 198 200 203 203 202 202 202 203 205 206 207 208 210 215 220 223 226 227 227 225 223 222 221 220 218 215 214 215 214 211 209 210 212 214 216 218 219 220 220 223 225 224 222 219 218 219 222 224 225 224 220
344 338 330 322 310 304 304 303 305 309 312 316 319 315 308 303 290 283 285 285 281 280 276 261 240 227 224 225 225 224 222 219 215 208 203 201 200 200 201 202 201 200 203 205 207 208 212 217 219 221 223 225 226 225 222 221 220 219 217 216 215 215 215 212 211 212 214 215 217 219 220 220 220 222 225 225 222 220 219 221 224 226 225 224 221
356 351 343 332 312 299 306 311 312 313 312 312 314 309 301 293 287 288 289 285 279 276 272 261 245 231 225 225 226 225 223 221 218 213 208 205 201 199 200 202 201 200 201 205 207 207 210 218 223 224 225 224 224 222 221 221 220 218 217 216 215 215 216 215 215 216 217 218 218 220 221 221 221 222 225 226 224 221 221 222 225 226 226 223 219
1 357 350 342 335 331 328 321 320 320 317 314 313 303 290 286 287 288 287 285 283 279 269 259 248 235 226 223 225 225 222 220 218 213 209 207 204 201 201 202 202 201 202 205 208 207 207 213 220 224 225 224 222 220 219 219 219 218 217 216 215 215 217 218 217 218 219 220 221 222 222 223 223 223 224 225 224 222 222 222 224 226 225 221 218
2 360 351 346 359 14 7 351 343 341 335 329 326 313 293 287 285 283 280 278 278 277 272 263 251 240 230 223 222 222 220 218 216 213 212 212 208 203 203 202 202 202 203 205 207 207 208 212 217 219 220 222 221 219 217 215 215 215 216 216 214 214 217 220 219 219 220 221 222 223 222 223 225 224 222 222 223 222 221 220 222 225 224 221 218
3 359 352 353 5 14 11 4 355 350 345 339 333 325 315 305 294 284 276 270 266 265 265 263 257 246 232 222 220 221 219 214 211 210 213 215 212 208 205 202 200 201 203 204 204 203 202 204 208 211 217 227 230 225 219 213 210 210 212 213 211 212 215 217 217 217 218 218 219 220 221 223 226 226 223 222 223 222 219 217 218 221 222 220 219
6 -0 359 3 7 8 6 0 352 348 343 334 327 327 328 325 315 300 282 265 254 249 250 253 254 250 236 222 220 222 220 214 209 208 211 214 213 210 208 206 204 204 203 202 201 202 203 202 196 194 205 220 227 226 221 216 211 209 208 208 208 210 213 214 213 213 214 214 214 214 215 217 220 220 217 216 217 218 217 215 215 217 218 219 219
8 3 4 6 8 10 7 356 345 339 330 322 328 339 341 337 334 324 300 267 247 239 237 241 245 245 237 224 220 222 222 216 210 208 211 214 214 212 211 212 213 212 211 208 205 205 210 211 208 204 203 205 213 220 221 219 215 212 210 209 208 210 213 213 212 211 209 207 206 207 207 208 210 211 210 209 210 212 212 212 213 214 215 216 215
2 4 8 10 12 11 3 349 334 324 316 322 345 355 352 348 347 342 324 283 246 230 227 229 234 239 236 225 219 220 221 219 214 210 212 216 219 217 217 218 220 219 219 217 214 213 216 215 212 211 209 209 215 222 222 219 216 215 214 213 213 213 213 213 212 210 207 204 201 200 202 204 205 206 207 207 207 207 206 207 208 209 211 212 212
359 3 9 12 12 6 353 343 338 337 339 347 356 1 359 354 352 349 336 304 250 223 218 219 222 230 233 227 220 218 219 219 216 214 213 215 219 222 222 224 225 223 221 220 219 220 221 219 215 213 213 215 221 225 223 219 217 216 214 214 214 213 211 210 210 207 202 200 201 199 200 204 205 205 206 207 206 205 204 204 205 205 207 209 209
Height
738 739 741 743 746 748 754 757 756 751 753 764 767 764 763 760 758 757 760 764 768 773 778 782 785 788 790 792 794 796 799 802 804 806 808 810 813 815 817 819 821 822 824 825 826 827 828 830 831 832 833 834 836 838 839 840 842 843 844 845 846 847 850 851 851 853 855 858 860 862 862 863 864 864 864 864 864 865 866 867 867 868 869 869 870
737 738 739 741 743 744 749 756 759 753 750 759 763 762 762 762 760 758 759 762 764 768 773 777 781 784 786 789 792 795 797 799 801 804 806 808 811 813 816 818 819 821 822 823 825 826 827 828 829 830 831 833 835 837 838 839 841 842 842 844 845 846 848 850 850 851 854 856 858 861 863 864 864 864 864 864 864 864 865 866 867 867 868 869 870
738 739 739 740 741 741 744 751 758 755 750 754 758 757 758 760 761 760 758 760 763 766 770 775 779 782 785 789 792 795 797 799 800 802 805 807 809 812 814 816 818 819 821 822 823 824 825 826 828 829 830 832 834 835 837 838 839 840 841 842 844 846 847 849 850 850 852 855 858 861 863 864 865 865 864 865 864 864 864 865 866 866 867 868 869
737 737 738 739 740 740 740 744 751 752 748 750 754 754 752 754 758 758 757 759 762 765 770 774 778 782 785 789 792 794 796 799 801 802 804 805 807 809 811 814 816 817 819 820 821 822 823 825 827 828 829 831 832 834 835 836 837 838 839 840 842 844 846 848 849 850 850 853 857 861 864 865 866 865 864 865 865 864 864 864 865 865 866 867 868
735 734 735 737 737 737 737 738 741 746 745 742 746 750 749 748 751 753 754 756 761 764 768 773 777 781 784 788 791 793 795 797 798 799 800 802 804 806 809 811 814 816 817 819 819 820 822 824 826 827 828 830 831 832 833 834 835 836 837 838 839 841 843 846 848 849 849 850 853 857 862 865 863 862 863 864 864 864 864 864 864 865 865 866 867
732 731 731 732 733 733 734 734 734 737 738 736 737 743 745 744 746 749 749 751 758 764 767 770 774 778 781 784 785 787 789 790 791 793 796 799 801 804 807 810 812 814 815 817 818 819 820 822 825 826 827 828 829 830 831 832 834 835 836 837 838 839 841 844 846 848 850 850 850 852 855 857 857 860 863 863 863 863 863 863 863 864 864 864 865
728 729 728 728 730 731 731 731 730 731 733 734 733 734 739 741 742 746 746 744 749 758 763 766 770 774 777 779 780 781 783 785 788 792 794 797 800 803 806 808 810 812 814 815 816 817 819 821 823 824 825 826 827 828 829 830 832 834 835 836 837 838 839 841 843 846 848 849 850 850 851 851 853 856 858 860 862 862 861 862 862 863 863 864 864
723 725 725 724 725 727 728 727 726 727 730 734 735 733 734 737 739 741 743 741 743 751 757 761 764 768 772 776 778 780 781 784 788 792 795 797 799 801 804 806 808 810 812 813 814 815 817 819 821 823 824 825 825 826 827 829 831 833 834 835 835 837 838 839 841 843 845 846 848 850 850 851 851 852 853 855 857 859 860 860 861 861 862 862 863
719 720 721 720 720 722 724 723 721 721 724 730 735 737 734 734 736 737 740 740 741 746 752 755 758 761 766 772 776 778 781 784 787 790 794 795 797 799 802 804 805 808 810 811 812 813 815 817 819 821 821 822 823 824 826 827 829 831 832 833 834 835 836 838 839 840 842 843 846 847 849 850 852 852 852 853 854 856 858 859 859 860 861 860 861
716 716 716 716 715 716 718 719 718 716 717 721 729 737 738 735 734 735 736 738 739 744 749 752 755 757 761 767 772 776 779 782 785 788 791 793 795 797 799 801 803 805 807 809 810 811 813 815 817 818 819 820 821 822 824 826 827 829 830 831 832 833 835 836 837 839 840 842 843 845 847 848 850 851 851 852 853 854 855 855 856 858 858 857 858
714 714 713 712 710 710 712 715 715 713 713 717 723 732 737 735 733 733 734 736 738 742 746 750 753 754 756 761 766 771 775 778 782 784 787 789 791 793 796 798 800 802 804 806 807 809 810 812 814 816 817 818 819 820 822 823 825 827 829 830 831 832 833 835 836 838 839 840 842 842 843 844 846 847 848 849 850 851 852 853 854 855 856 855 856
713 712 711 709 708 707 709 714 717 715 711 714 719 724 731 732 731 731 733 735 737 740 744 748 751 752 751 755 761 767 771 774 777 780 782 785 787 790 792 795 797 799 801 803 804 806 807 809 812 813 815 816 817 818 820 822 824 826 827 828 829 830 831 833 834 836 837 838 839 840 841 842 843 844 845 847 848 849 850 851 852 854 855 855 855
710 710 708 707 705 704 704 708 716 719 713 710 713 717 723 727 728 729 730 733 736 739 743 746 749 750 749 751 756 762 766 770 773 776 779 781 783 786 788 790 793 795 796 798 800 802 803 805 808 810 811 813 814 815 817 820 822 824 825 826 827 828 829 831 832 833 834 835 837 838 839 840 841 843 844 845 847 848 848 849 851 853 853 853 854
707 706 705 703 701 700 701 702 708 716 716 710 708 711 716 720 723 726 728 730 733 736 740 743 746 748 748 749 753 757 762 765 769 772 775 777 780 782 783 785 788 790 792 794 796 799 800 802 804 806 809 810 812 813 815 817 819 821 822 823 824 825 827 828 830 831 832 833 835 836 837 838 839 841 843 844 845 846 846 848 850 852 853 853 854
705 703 702 701 698 695 697 700 701 706 712 713 711 709 710 714 717 720 724 727 730 733 736 739 743 745 748 750 752 754 757 761 765 768 771 774 776 778 780 781 784 786 788 791 794 796 798 799 801 804 806 808 809 811 812 814 816 818 819 820 821 823 824 826 827 828 830 831 832 834 835 836 837 839 841 842 842 844 845 846 848 850 853 854 854
704 702 701 700 699 695 693 695 698 701 707 714 715 712 710 711 712 714 717 722 725 729 732 735 739 743 746 749 752 753 755 759 762 765 768 770 772 774 776 778 780 783 786 788 790 792 795 796 798 800 802 805 806 808 809 811 813 815 816 817 818 820 821 822 824 826 827 828 830 832 833 834 835 837 839 840 841 842 843 845 846 847 850 852 854
706 704 702 698 697 696 692 692 695 700 706 711 715 716 714 712 713 714 714 718 722 725 728 732 736 740 744 747 749 751 753 756 759 761 764 767 769 771 774 776 778 780 782 785 787 789 791 793 795 797 799 801 803 804 806 808 810 811 812 814 815 816 818 819 821 823 824 826 828 829 830 832 833 835 836 838 839 840 841 843 844 845 846 849 851
707 703 700 697 695 695 694 692 693 697 703 707 709 714 716 713 715 718 717 717 720 723 726 730 733 737 740 744 746 748 750 753 755 758 761 764 766 768 771 773 775 777 779 781 784 786 788 790 792 794 796 798 800 801 803 805 806 808 809 810 812 813 815 816 818 819 821 823 825 827 828 830 831 833 834 835 837 838 839 841 842 844 844 845 847
706 701 699 697 695 695 695 695 693 694 700 704 705 709 713 711 711 718 721 721 721 723 726 729 731 734 736 739 742 745 747 750 753 756 759 761 762 764 767 768 771 774 776 778 780 782 784 786 788 791 793 795 797 798 800 802 803 805 806 807 809 810 812 813 814 816 818 820 822 824 825 827 829 830 831 833 835 836 837 839 840 841 842 842 843
706 702 700 698 696 695 694 695 695 694 695 700 702 704 706 706 706 712 720 724 726 726 726 728 730 732 734 737 740 742 745 748 751 754 756 757 758 760 762 765 767 770 772 774 776 778 780 782 785 787 789 791 794 795 797 799 800 802 803 805 806 807 808 809 811 813 815 817 819 821 822 824 826 827 829 830 832 833 835 836 838 839 839 840 841
707 702 699 698 697 695 693 692 693 695 694 695 698 700 701 702 704 707 712 718 725 728 728 727 729 731 733 735 737 740 743 746 749 751 753 754 755 757 759 762 764 766 769 770 772 774 776 779 782 784 786 789 790 792 794 796 798 799 800 802 803 804 805 806 808 810 811 813 815 817 819 821 823 824 826 827 829 831 833 834 835 836 837 838 839
706 702 699 697 696 694 693 690 690 693 694 694 694 696 698 699 702 705 708 711 718 726 729 728 728 730 731 732 735 737 740 743 746 748 749 751 753 754 756 759 761 763 765 767 768 771 774 776 779 781 784 786 788 790 792 794 796 797 798 799 800 801 803 804 805 806 808 810 812 814 816 818 820 821 823 825 827 829 830 831 833 833 834 835 836
704 703 700 697 695 694 692 690 689 688 690 692 693 693 695 697 699 702 705 707 712 719 725 727 727 727 728 730 733 735 737 740 742 744 746 748 750 752 754 755 757 759 762 764 765 768 771 774 777 780 782 785 787 789 791 792 793 795 796 797 797 798 800 801 802 803 804 806 808 811 813 815 817 818 820 822 824 826 827 828 830 831 831 832 833
702 701 700 697 695 693 691 689 688 686 686 689 691 692 693 694 697 700 701 703 706 712 719 724 725 725 726 728 730 732 734 736 739 740 742 745 747 749 751 752 754 757 760 762 764 767 770 773 776 778 781 783 785 787 790 791 792 793 794 795 796 797 798 798 799 800 802 803 805 807 809 812 814 816 817 819 821 823 824 825 827 828 829 830 831
701 700 699 697 694 692 691 688 687 685 683 685 689 691 692 693 695 698 700 701 704 709 714 719 722 722 723 724 726 728 731 732 735 737 739 741 744 746 748 750 752 755 758 760 763 765 769 772 774 777 779 782 784 787 788 790 792 793 794 794 795 795 796 796 797 798 799 800 802 804 806 809 811 812 814 816 818 819 821 822 824 825 826 828 829
701 700 698 697 694 691 689 687 685 683 682 682 685 688 691 693 695 697 699 701 704 707 711 715 717 719 720 721 722 725 727 728 731 733 736 738 741 744 746 748 751 753 756 758 761 764 767 769 772 775 778 781 783 786 787 789 791 793 794 794 795 795 795 795 796 796 797 798 799 801 804 806 808 809 811 813 815 816 818 819 821 822 824 826 827
701 700 698 696 693 690 687 685 683 681 680 679 681 685 688 690 693 695 697 699 701 705 709 714 716 716 716 717 718 720 722 725 728 730 733 736 739 742 745 747 751 754 756 756 758 761 763 766 770 773 776 779 782 784 786 788 791 792 793 794 794 795 795 795 795 795 796 796 797 799 801 803 805 806 808 810 812 814 815 816 818 820 822 823 824
700 699 697 695 692 689 686 684 681 679 679 678 679 682 685 688 690 692 694 696 698 700 704 711 716 718 716 714 714 717 719 722 725 728 731 735 738 742 744 747 751 754 755 753 753 757 760 764 768 771 774 777 780 782 784 786 789 791 792 793 793 794 794 794 794 794 795 795 796 797 799 800 802 803 805 807 809 811 812 814 816 818 820 821 822
698 696 694 692 691 688 686 684 681 679 678 678 679 680 682 687 690 692 693 695 696 698 700 704 709 714 717 716 714 715 717 720 723 727 730 733 736 740 743 745 748 752 755 753 751 754 759 762 765 769 772 775 777 778 780 783 786 788 790 791 792 793 793 793 793 793 794 794 794 795 797 798 800 801 803 805 806 808 809 811 813 816 817 818 819
697 694 691 691 689 687 685 684 681 680 679 679 679 678 679 683 687 690 693 695 697 698 698 699 701 706 712 716 716 715 715 718 721 724 727 731 734 737 740 743 746 750 754 755 753 753 757 760 763 766 769 772 773 774 776 779 782 785 787 789 791 792 793 793 793 793 792 792 793 794 795 796 798 799 801 802 804 805 807 808 811 813 815 816 816
695 692 690 690 689 686 684 683 680 678 678 679 679 679 678 679 682 686 689 693 696 696 696 697 698 699 703 710 716 717 715 715 718 721 724 727 730 733 736 739 743 747 751 753 753 753 755 758 762 765 767 769 770 771 773 776 779 782 784 787 788 790 791 792 792 791 791 791 791 792 793 795 796 797 798 800 801 803 804 806 809 810 812 813 814
692 690 688 688 688 685 682 681 678 675 675 676 676 678 679 679 680 682 684 687 691 692 693 695 697 701 702 704 709 714 713 712 714 717 719 722 725 728 731 734 738 742 746 750 751 752 753 756 760 763 765 766 767 769 771 773 776 779 782 784 786 788 789 790 790 790 789 789 790 791 792 793 793 794 796 797 798 801 803 805 807 808 809 811 812
689 686 685 685 685 682 679 678 675 673 672 672 673 675 677 678 678 679 680 683 685 687 690 692 695 701 704 706 708 710 709 708 709 711 714 716 719 722 726 730 733 736 741 745 749 751 753 755 758 761 763 764 766 767 769 771 774 776 779 782 784 785 787 787 788 788 788 788 788 789 790 790 791 792 793 795 796 798 801 803 804 806 807 808 809
687 683 683 683 681 678 677 675 672 670 670 670 671 672 673 675 676 677 678 680 682 684 686 688 690 694 698 703 708 710 708 705 704 706 708 710 713 716 720 724 727 730 734 739 744 749 752 754 755 758 760 763 764 766 767 769 772 774 777 780 782 783 784 785 786 786 786 786 787 787 787 787 788 789 790 792 794 796 798 800 802 803 804 805 807
689 685 682 681 679 676 675 672 670 668 668 669 671 671 671 672 674 676 677 677 679 681 683 686 689 692 694 695 698 704 707 706 704 703 704 706 708 712 715 718 721 724 727 730 734 740 746 750 753 756 759 760 762 764 765 767 770 772 775 778 780 781 782 783 784 784 784 785 785 785 785 785 785 786 787 789 791 794 796 798 799 800 802 803 805
691 686 683 680 677 675 672 670 668 667 667 668 670 671 671 671 672 674 676 677 677 679 680 683 686 690 693 693 691 694 699 705 708 706 704 703 705 710 714 716 717 721 723 724 725 730 737 743 747 752 755 756 758 761 763 765 768 771 773 776 777 778 779 780 781 782 782 783 783 783 783 783 783 784 785 787 789 792 794 796 797 799 800 801 802
689 687 685 682 678 674 671 669 667 667 666 667 670 670 670 670 671 673 675 676 678 677 678 679 681 683 686 688 687 687 690 697 705 708 706 704 705 710 715 717 719 721 721 721 722 725 730 735 739 743 748 750 753 757 760 763 767 769 771 773 774 775 776 777 778 779 780 780 780 781 781 781 781 781 782 784 787 789 792 794 795 797 798 799 801
688 687 684 681 678 675 672 670 668 667 666 667 669 670 669 669 670 671 672 674 676 677 677 677 678 679 680 681 682 683 684 690 696 702 706 706 705 706 710 713 718 721 720 719 721 724 727 730 732 736 740 744 748 752 756 760 763 766 769 771 772 773 773 774 775 776 777 777 778 778 778 778 778 779 780 782 784 787 789 791 793 795 796 797 798
687 685 681 677 675 673 671 670 668 668 667 668 669 670 669 669 668 669 670 671 673 674 676 677 677 677 677 678 679 680 682 686 690 693 698 702 702 703 705 707 711 715 717 718 721 725 727 729 730 732 734 737 741 746 751 755 758 762 765 767 769 770 770 770 771 773 774 774 775 775 775 775 775 776 778 780 782 784 786 788 791 793 794 795 796
682 680 678 674 672 671 669 668 668 669 668 669 669 670 669 669 668 668 669 670 670 671 672 674 676 676 676 676 677 678 679 683 686 688 690 694 697 700 703 705 708 711 712 714 717 721 724 727 729 729 730 730 733 737 742 747 751 756 760 763 764 765 765 766 767 769 770 771 771 772 772 772 773 774 776 778 779 781 784 786 788 790 790 791 794
680 677 675 673 670 669 669 669 669 669 669 669 669 669 669 668 668 668 667 667 669 670 670 672 674 676 676 676 675 676 677 679 682 684 686 689 691 694 697 700 703 706 708 710 712 714 716 720 724 727 728 727 727 729 733 739 745 750 755 758 759 759 760 762 763 765 766 766 767 768 768 769 771 772 773 775 777 779 781 783 785 787 788 790 793
678 676 674 672 670 668 668 668 668 668 667 667 667 667 667 667 668 667 667 666 667 668 669 670 671 672 674 674 674 675 676 677 679 681 683 685 687 690 692 694 697 700 703 705 708 710 711 712 715 719 722 723 724 724 726 731 737 743 748 752 753 754 756 758 759 760 761 762 763 764 764 766 768 769 771 773 775 777 780 781 783 786 787 790 792
678 676 674 672 670 668 667 666 665 665 665 664 665 664 665 666 666 666 666 666 666 667 668 668 668 669 670 671 672 673 674 675 676 678 679 681 684 686 689 691 693 696 698 701 704 707 709 709 710 712 715 717 719 720 722 726 731 736 742 746 748 750 752 753 754 754 755 757 759 761 762 764 766 768 769 771 774 776 778 780 782 785 786 788 791
680 677 674 671 669 667 666 664 663 663 663 663 663 663 663 663 662 663 664 665 665 665 666 666 666 666 666 667 668 669 671 671 672 674 676 678 680 683 685 688 690 692 695 698 700 702 705 707 709 710 712 714 716 717 719 722 726 731 736 740 744 746 748 748 749 750 751 754 756 758 759 761 764 766 768 770 772 774 776 778 781 783 784 786 788
683 680 676 673 670 667 666 665 663 663 662 662 662 663 662 661 660 660 661 661 662 663 663 663 663 663 663 664 664 665 666 667 668 671 672 674 676 679 681 683 686 688 691 694 697 699 701 703 705 708 711 713 714 715 718 721 724 727 731 735 739 742 743 744 745 746 748 750 752 754 757 759 762 764 766 768 769 771 773 776 779 780 782 784 785
685 682 680 676 672 669 667 666 665 664 664 663 663 663 662 660 659 658 658 658 658 659 659 659 660 660 661 661 661 661 662 663 664 666 668 669 671 673 676 678 681 684 687 690 693 697 699 701 703 706 710 713 714 714 715 716 719 724 727 730 734 737 739 740 741 743 745 748 750 752 754 756 759 761 763 764 765 767 770 773 775 777 778 780 782
690 688 685 679 674 671 669 668 667 666 665 664 663 662 661 659 657 656 655 655 655 655 655 655 656 657 658 659 658 658 658 659 661 662 663 664 666 668 670 673 676 679 683 685 688 692 696 699 702 705 710 713 714 715 714 714 715 719 723 726 730 734 735 737 739 741 743 745 747 749 751 754 756 757 759 760 762 764 767 769 771 773 774 776 778
696 692 687 681 677 674 672 671 669 668 667 666 664 662 659 657 655 653 652 651 650 650 651 651 652 653 655 655 655 654 654 655 657 658 659 660 662 664 666 668 670 673 676 679 682 685 688 691 695 700 705 709 711 710 711 712 712 713 717 723 727 730 732 734 737 739 741 743 745 747 749 751 753 754 755 757 758 760 762 764 767 768 770 773 775
700 697 692 687 682 678 675 674 673 671 670 669 666 661 657 655 652 650 648 646 644 644 645 646 647 648 649 651 651 650 650 651 652 654 655 656 657 659 661 663 665 667 669 672 676 679 681 684 688 691 695 701 702 700 701 705 707 709 711 715 720 725 728 730 733 736 738 740 743 745 746 747 749 751 752 753 754 755 757 760 763 765 767 769 771
700 697 693 688 683 679 679 679 678 675 672 668 663 659 655 652 648 646 643 641 638 638 639 640 642 643 644 646 647 646 646 647 648 650 651 653 654 655 656 658 659 662 664 666 669 671 673 676 679 682 685 689 690 690 693 698 702 705 707 708 711 715 720 724 728 731 734 736 738 740 741 742 743 746 747 748 750 752 754 756 759 761 763 765 767
701 696 692 688 686 687 687 685 680 675 669 664 660 655 651 648 644 640 637 634 631 632 633 634 636 637 639 641 643 643 643 643 644 646 648 649 651 653 654 655 656 658 660 662 664 666 668 669 671 674 677 680 682 684 688 691 694 697 701 704 706 710 713 717 720 722 725 728 731 733 734 736 738 740 742 744 746 748 750 753 756 758 760 761 762